sat.trackr.live / text

‹ back to catalog

STARLINK-4277

NORAD 53009 · 2022-076Z

PAYLOAD ACTIVE UNKNOWN

§ Identity

Operator
Country
US
Launch date
2022-07-07
Launch site
AFETR
Launch vehicle
Mass (kg)
RCS (m²)

Purposes: comms

External: N2YO · Heavens-Above · Gunter

§ Orbital elements

Epoch: 2026-09-20T00:37:10.211232Z

Period
93.79 min
Inclination
53.1603°
Eccentricity
0.0001179
Mean motion
15.35402159 rev/d
Perigee alt
458.9 km
Apogee alt
460.5 km
Semi-major
6,837.9 km
B*
2.5535e-5
RAAN
283.7523°
Arg perigee
74.8453°
Mean anomaly
285.2680°
Rev number
23,242

§ Raw data

STARLINK-42771 53009U 22076Z   26263.02581263  .00000510  00000+0  25535-4 0  99992 53009  53.1603 283.7523 0001179  74.8453 285.2680 15.35402159232425

JSON: /api/v1/satellites/53009 · /tle

For live sub-satellite position, see the globe view (requires WebGL).

§ Visibility from observer

Set your observer location to see the next 7 days of passes ≥ 10°. The values pass through the URL so the page stays shareable.

No JS? Fill the form by hand. The geolocation button needs JavaScript.